Location: Les Chemineaux
(47.3024°N, 1.5104°E)
Time: 00:49:54
(UTC+00:00)

USA 229 - Pass Details

Date: 19 May 2025
Orbit: 872 x 1339 km, 63.4° (Epoch: 17 June)

Event Time Altitude Azimuth Distance (km) Brightness Sun altitude
Exits shadow 23:20:51 46° 175° (S) 1,261 3.6 -22.4°
Maximum altitude 23:22:28 60° 122° (ESE) 1,098 3.5 -22.4°
Drops below altitude 10° 23:29:02 10° 45° (NE) 2,872 6.5 -22.5°
Sets 23:31:50 0° 42° (NE) 3,903 7.3 -22.6°
